| time (UTC) | temp C | wind direction | speed KPH | gust KPH | rain 1hr cm | rain 24hr cm | rain mn cm | humidity % | barometer mb |
| 20260506033005 | 14 | 191 | 12.9 | 37.0 | 0.00 | 0.00 | 0.00 | 79 | 1011.0 |
| 20260506031503 | 14 | 222 | 9.7 | 20.9 | 0.00 | 0.00 | 0.00 | 79 | 1011.1 |
| 20260506024504 | 14 | 218 | 11.3 | 29.0 | 0.00 | 0.00 | 0.00 | 78 | 1011.0 |
| 20260506023005 | 15 | 188 | 12.9 | 27.4 | 0.00 | 0.00 | 0.00 | 78 | 1011.0 |
| 20260506021504 | 14 | 226 | 9.7 | 25.7 | 0.00 | 0.00 | 0.00 | 77 | 1011.0 |
| 20260506020007 | 15 | 195 | 11.3 | 27.4 | 0.00 | 0.00 | 0.00 | 76 | 1011.1 |
| 20260506014504 | 14 | 236 | 8.0 | 16.1 | 0.00 | 0.00 | 0.00 | 76 | 1011.0 |
| 20260506013005 | 15 | 219 | 9.7 | 27.4 | 0.00 | 0.00 | 0.00 | 76 | 1010.8 |
| 20260506011504 | 15 | 229 | 9.7 | 25.7 | 0.00 | 0.00 | 0.00 | 75 | 1010.8 |
| 20260506010006 | 15 | 162 | 11.3 | 27.4 | 0.00 | 0.00 | 0.00 | 74 | 1010.7 |
| 20260506004505 | 15 | 169 | 9.7 | 29.0 | 0.00 | 0.00 | 0.00 | 73 | 1010.6 |
| 20260506003006 | 15 | 213 | 14.5 | 35.4 | 0.00 | 0.00 | 0.00 | 72 | 1010.4 |
| 20260506000008 | 16 | 213 | 14.5 | 33.8 | 0.00 | 0.00 | 0.00 | 70 | 1010.1 |
| 20260505234504 | 17 | 228 | 17.7 | 45.1 | 0.00 | 0.00 | 0.00 | 68 | 1009.5 |
| 20260505233005 | 16 | 224 | 16.1 | 49.9 | 0.00 | 0.00 | 0.00 | 69 | 1009.2 |
| 20260505231504 | 16 | 236 | 17.7 | 37.0 | 0.00 | 0.00 | 0.00 | 69 | 1009.0 |
| 20260505230008 | 16 | 165 | 16.1 | 40.2 | 0.00 | 0.00 | 0.00 | 69 | 1008.9 |
| 20260505224503 | 17 | 226 | 17.7 | 40.2 | 0.00 | 0.00 | 0.00 | 68 | 1008.9 |
| 20260505223005 | 17 | 233 | 12.9 | 27.4 | 0.00 | 0.00 | 0.00 | 68 | 1008.8 |
| 20260505221504 | 17 | 208 | 16.1 | 38.6 | 0.00 | 0.00 | 0.00 | 67 | 1008.8 |
| 20260505220008 | 17 | 205 | 14.5 | 37.0 | 0.00 | 0.00 | 0.00 | 67 | 1008.8 |
| 20260505214503 | 17 | 214 | 11.3 | 30.6 | 0.00 | 0.00 | 0.00 | 67 | 1008.7 |
| 20260505213004 | 17 | 161 | 12.9 | 33.8 | 0.00 | 0.00 | 0.00 | 67 | 1008.5 |
| 20260505211504 | 17 | 209 | 16.1 | 35.4 | 0.00 | 0.00 | 0.00 | 67 | 1008.3 |
| 20260505210008 | 17 | 210 | 16.1 | 37.0 | 0.00 | 0.00 | 0.00 | 68 | 1008.2 |
| 20260505204504 | 16 | 231 | 16.1 | 32.2 | 0.00 | 0.00 | 0.00 | 69 | 1008.5 |
| 20260505203005 | 17 | 200 | 14.5 | 30.6 | 0.00 | 0.00 | 0.00 | 67 | 1008.4 |
| 20260505201504 | 17 | 146 | 12.9 | 29.0 | 0.00 | 0.00 | 0.00 | 67 | 1008.4 |
| 20260505200007 | 17 | 225 | 12.9 | 29.0 | 0.00 | 0.00 | 0.00 | 68 | 1008.6 |
| 20260505194503 | 17 | 226 | 9.7 | 25.7 | 0.00 | 0.00 | 0.00 | 67 | 1008.8 |
| 20260505193006 | 17 | 156 | 11.3 | 35.4 | 0.00 | 0.00 | 0.00 | 67 | 1009.0 |
| 20260505191504 | 18 | 223 | 14.5 | 30.6 | 0.00 | 0.00 | 0.00 | 65 | 1009.5 |
| 20260505190005 | 18 | 174 | 11.3 | 25.7 | 0.00 | 0.00 | 0.00 | 66 | 1009.8 |
| 20260505184504 | 17 | 203 | 9.7 | 29.0 | 0.00 | 0.00 | 0.00 | 67 | 1010.0 |
| 20260505183004 | 17 | 236 | 9.7 | 27.4 | 0.00 | 0.00 | 0.00 | 66 | 1010.1 |
| 20260505181504 | 17 | 176 | 6.4 | 24.1 | 0.00 | 0.00 | 0.00 | 66 | 1010.3 |
| 20260505180006 | 17 | 141 | 4.8 | 11.3 | 0.00 | 0.00 | 0.00 | 68 | 1010.4 |
| 20260505174504 | 17 | 193 | 4.8 | 12.9 | 0.00 | 0.00 | 0.00 | 70 | 1010.7 |
| 20260505173003 | 17 | 195 | 4.8 | 12.9 | 0.00 | 0.00 | 0.00 | 68 | 1010.7 |
| 20260505171506 | 17 | 101 | 4.8 | 14.5 | 0.00 | 0.00 | 0.00 | 70 | 1010.7 |
| 20260505170006 | 17 | 143 | 6.4 | 17.7 | 0.00 | 0.00 | 0.00 | 68 | 1010.9 |
| 20260505164504 | 17 | 169 | 4.8 | 16.1 | 0.00 | 0.00 | 0.00 | 68 | 1011.0 |
| 20260505163004 | 18 | 219 | 4.8 | 11.3 | 0.00 | 0.00 | 0.00 | 66 | 1011.0 |
| 20260505161505 | 20 | 200 | 3.2 | 9.7 | 0.00 | 0.00 | 0.00 | 65 | 1011.1 |
| 20260505153004 | 17 | 158 | 4.8 | 11.3 | 0.00 | 0.00 | 0.00 | 69 | 1011.6 |
| 20260505151505 | 17 | 195 | 3.2 | 9.7 | 0.00 | 0.00 | 0.00 | 70 | 1011.6 |
| 20260505124503 | 16 | 153 | 3.2 | 9.7 | 0.00 | 0.00 | 0.00 | 74 | 1011.5 |
| 20260505123004 | 15 | 200 | 1.6 | 6.4 | 0.00 | 0.00 | 0.00 | 78 | 1011.4 |
| 20260505120006 | 13 | 193 | 0.0 | 3.2 | 0.00 | 0.00 | 0.00 | 82 | 1011.4 |
| 20260505114501 | 13 | 203 | 0.0 | 3.2 | 0.00 | 0.00 | 0.00 | 82 | 1011.5 |
| 20260505101503 | 11 | 217 | 1.6 | 4.8 | 0.00 | 0.00 | 0.00 | 88 | 1010.7 |
| 20260505100005 | 11 | 223 | 1.6 | 6.4 | 0.00 | 0.00 | 0.00 | 88 | 1010.6 |
| 20260505091502 | 11 | 207 | 1.6 | 6.4 | 0.00 | 0.00 | 0.00 | 88 | 1010.5 |
| 20260505090005 | 11 | 197 | 1.6 | 6.4 | 0.00 | 0.00 | 0.00 | 87 | 1010.5 |
| 20260505084502 | 11 | 202 | 3.2 | 9.7 | 0.00 | 0.00 | 0.00 | 88 | 1010.3 |
| 20260505083004 | 11 | 189 | 1.6 | 4.8 | 0.00 | 0.00 | 0.00 | 87 | 1010.3 |
| 20260505081503 | 11 | 193 | 1.6 | 4.8 | 0.00 | 0.00 | 0.00 | 87 | 1010.5 |
| 20260505074503 | 11 | 212 | 1.6 | 6.4 | 0.00 | 0.00 | 0.00 | 86 | 1010.4 |
| 20260505070005 | 12 | 202 | 6.4 | 19.3 | 0.00 | 0.00 | 0.00 | 86 | 1010.4 |
| 20260505063004 | 11 | 216 | 3.2 | 8.0 | 0.00 | 0.00 | 0.00 | 86 | 1010.5 |
| 20260505061501 | 11 | 213 | 3.2 | 16.1 | 0.00 | 0.00 | 0.00 | 85 | 1010.7 |
| 20260505060007 | 12 | 195 | 3.2 | 6.4 | 0.00 | 0.00 | 0.00 | 85 | 1010.7 |
| 20260505054504 | 12 | 210 | 4.8 | 11.3 | 0.00 | 0.00 | 0.00 | 85 | 1010.8 |
| 20260505053005 | 12 | 197 | 4.8 | 14.5 | 0.00 | 0.00 | 0.00 | 84 | 1011.0 |
| 20260505051502 | 12 | 208 | 4.8 | 12.9 | 0.00 | 0.00 | 0.00 | 84 | 1011.0 |
| 20260505041504 | 12 | 231 | 3.2 | 9.7 | 0.00 | 0.00 | 0.00 | 80 | 1011.3 |
| 20260505040007 | 12 | 234 | 3.2 | 11.3 | 0.00 | 0.00 | 0.00 | 79 | 1011.2 |